{"data":{"norad_id":52272,"intl_designator":"2022-041M","name":"STARLINK-3781","alt_names":[],"object_type":"PAYLOAD","status":"ACTIVE","operator":null,"country":"US","launch_date":"2022-04-21","launch_site_code":"AFETR","launch_vehicle":null,"mission":null,"orbit_class":"UNKNOWN","rcs_meters":null,"size_class":null,"mass_kg":null,"dimensions":null,"purposes":["comms"],"wikipedia_slug":null,"has_3d_model":false,"image_url":null,"decayed_at":null,"tle_current":{"epoch":"2026-05-25T02:59:16.112256Z","epoch_age_seconds":60171,"freshness":"FRESH","line1":"1 52272U 22041M   26145.12449204  .00000185  00000+0  29731-4 0  9990","line2":"2 52272  53.2148 126.0319 0001263  76.9488 283.1645 15.08835826225902","mean_motion":15.08835826,"eccentricity":0.0001263,"inclination_deg":53.2148,"raan_deg":126.0319,"arg_perigee_deg":76.9488,"mean_anomaly_deg":283.1645,"bstar":2.9731e-5,"rev_number":22590,"period_min":95.43781869347,"perigee_km":538.88241733718,"apogee_km":540.62987714618,"semimajor_km":6917.8931472417,"source":"CELESTRAK","updated_at":"2026-05-25T13:38:17.082116Z"}}}